TimeEST,TemperatureF,Dew PointF,Humidity,Sea Level PressureIn,VisibilityMPH,Wind Direction,Wind SpeedMPH,Gust SpeedMPH,PrecipitationIn,Events,Conditions,WindDirDegrees,DateUTC
12:53 AM,28.0,26.1,92,30.35,6.0,Calm,Calm,-,N/A,,Clear,0,2012-11-16 05:53:00
1:53 AM,28.0,26.1,92,30.35,5.0,Calm,Calm,-,N/A,,Clear,0,2012-11-16 06:53:00
2:53 AM,28.0,27.0,96,30.35,5.0,Calm,Calm,-,N/A,,Clear,0,2012-11-16 07:53:00
3:53 AM,28.0,26.1,92,30.34,5.0,NW,3.5,-,N/A,,Clear,310,2012-11-16 08:53:00
4:53 AM,28.0,26.1,92,30.35,5.0,Calm,Calm,-,N/A,,Clear,0,2012-11-16 09:53:00
5:53 AM,28.0,27.0,96,30.36,4.0,Calm,Calm,-,N/A,,Clear,0,2012-11-16 10:53:00
6:53 AM,28.9,27.0,92,30.37,5.0,NNW,4.6,-,N/A,,Clear,340,2012-11-16 11:53:00
7:53 AM,28.9,27.0,92,30.39,3.0,Calm,Calm,-,N/A,,Clear,0,2012-11-16 12:53:00
8:53 AM,30.9,28.9,92,30.41,4.0,Calm,Calm,-,N/A,,Clear,0,2012-11-16 13:53:00
9:53 AM,35.1,30.0,82,30.42,6.0,Calm,Calm,-,N/A,,Haze,0,2012-11-16 14:53:00
10:53 AM,41.0,33.1,73,30.40,8.0,Calm,Calm,-,N/A,,Clear,0,2012-11-16 15:53:00
11:53 AM,45.0,30.9,58,30.39,10.0,NNE,6.9,-,N/A,,Clear,30,2012-11-16 16:53:00
12:53 PM,46.9,30.9,54,30.38,10.0,North,10.4,-,N/A,,Clear,10,2012-11-16 17:53:00
1:53 PM,48.0,30.9,52,30.37,10.0,NNE,10.4,-,N/A,,Clear,20,2012-11-16 18:53:00
2:53 PM,48.9,28.9,46,30.37,10.0,NNE,10.4,-,N/A,,Clear,20,2012-11-16 19:53:00
3:53 PM,48.0,28.0,46,30.39,10.0,NNE,6.9,-,N/A,,Clear,20,2012-11-16 20:53:00
4:53 PM,43.0,28.9,58,30.40,10.0,North,5.8,-,N/A,,Clear,10,2012-11-16 21:53:00
5:53 PM,36.0,30.0,79,30.43,10.0,NNW,6.9,-,N/A,,Clear,340,2012-11-16 22:53:00
6:53 PM,34.0,28.9,82,30.44,10.0,North,4.6,-,N/A,,Clear,350,2012-11-16 23:53:00
7:53 PM,33.1,28.9,85,30.45,10.0,NW,3.5,-,N/A,,Clear,320,2012-11-17 00:53:00
8:53 PM,30.9,28.0,89,30.47,10.0,Calm,Calm,-,N/A,,Clear,0,2012-11-17 01:53:00
9:53 PM,30.0,28.0,92,30.49,10.0,NNW,4.6,-,N/A,,Clear,330,2012-11-17 02:53:00
10:53 PM,30.0,27.0,88,30.50,10.0,Calm,Calm,-,N/A,,Clear,0,2012-11-17 03:53:00
11:53 PM,28.9,27.0,92,30.51,10.0,Calm,Calm,-,N/A,,Clear,0,2012-11-17 04:53:00